This demonstration page uses our WeatherBlox Daily Observations layout. Learn more.

38.89511, -77.03637

Hourly Observations for December 2, 2016

Temp ( °F °C ) Dew Point ( °F °C ) Humidity (%) Winds ( mph kmh ) Pressure ( in mb ) Visibility ( mi km ) Precip ( " mm )
12:52 am 00:52 Cloudy 48 8.9 29 -1.7 48 48 WNW 12 19 29.98 1015 10 16.0934 0 0
1:52 am 01:52 Cloudy 47 8.3 28 -2.2 48 48 NNW 10 17 30 1016 10 16.0934 0 0
2:52 am 02:52 Cloudy 47 8.3 28 -2.2 48 48 NW 12 19 30.01 1016 10 16.0934 0 0
3:23 am 03:23 Partly Cloudy 46 7.8 28 -2.2 50 50 NNW 13 20 30 1016 10 16.0934 0 0
3:52 am 03:52 Mostly Clear 45 7.2 27 -2.8 49 49 NNW 9 15 30.01 1016 10 16.0934 0 0
4:52 am 04:52 Mostly Clear 44 6.7 27 -2.8 51 51 NW 8 13 30.02 1017 10 16.0934 0 0
5:52 am 05:52 Mostly Cloudy 45 7.2 27 -2.8 49 49 WNW 6 9 30.03 1017 10 16.0934 0 0
6:34 am 06:34 Mostly Cloudy 45 7 27 -3 49 49 NW 9 15 30.06 1018 10 16.0934 0 0
6:52 am 06:52 Mostly Cloudy 45 7.2 27 -2.8 49 49 NW 10 17 30.05 1018 10 16.0934 0 0
7:52 am 07:52 Mostly Cloudy 46 7.8 27 -2.8 47 47 W 7 11 30.07 1018 10 16.0934 0 0
8:52 am 08:52 Mostly Cloudy 49 9.4 28 -2.2 44 44 W 10 17 30.07 1018 10 16.0934 0 0
9:52 am 09:52 Mostly Cloudy 49 9.4 28 -2.2 44 44 W 15 24 30.09 1019 10 16.0934 0 0
10:52 am 10:52 Partly Cloudy 51 10.6 28 -2.2 41 41 WNW 16 26 30.08 1019 10 16.0934 0 0
11:52 am 11:52 Mostly Sunny 51 10.6 28 -2.2 41 41 W 15 24 30.05 1018 10 16.0934 0 0
12:52 pm 12:52 Partly Cloudy 54 12.2 30 -1.1 40 40 NW 15 24 30.03 1017 10 16.0934 0 0
1:52 pm 13:52 Partly Cloudy 54 12.2 30 -1.1 40 40 NW 17 28 30.03 1017 10 16.0934 0 0
2:52 pm 14:52 Mostly Sunny 52 11.1 30 -1.1 43 43 NNW 16 26 30.04 1017 10 16.0934 0 0
3:52 pm 15:52 Partly Cloudy 50 10 30 -1.1 46 46 NW 9 15 30.05 1018 10 16.0934 0 0
4:52 pm 16:52 Partly Cloudy 48 8.9 29 -1.7 48 48 NW 20 31 30.06 1018 10 16.0934 0 0
5:52 pm 17:52 Partly Cloudy 46 7.8 29 -1.7 51 51 NW 15 24 30.08 1019 10 16.0934 0 0
6:52 pm 18:52 Mostly Cloudy 46 7.8 28 -2.2 50 50 NW 15 24 30.11 1020 10 16.0934 0 0
7:52 pm 19:52 Mostly Cloudy 46 7.8 28 -2.2 50 50 NW 16 26 30.12 1020 10 16.0934 0 0
8:52 pm 20:52 Cloudy 45 7.2 28 -2.2 52 52 WNW 13 20 30.13 1020 10 16.0934 0 0
9:52 pm 21:52 Mostly Cloudy 45 7.2 27 -2.8 49 49 W 17 28 30.13 1020 10 16.0934 0 0
10:52 pm 22:52 Mostly Cloudy 45 7.2 26 -3.3 48 48 W 13 20 30.13 1020 10 16.0934 0 0
11:52 pm 23:52 Mostly Cloudy 45 7.2 26 -3.3 48 48 W 8 13 30.14 1021 10 16.0934 0 0

Powered by AerisWeather